Regional Weather Roundup
Issued by NWS

Home | Current Version | Previous Version | Graphics & Text | Print | Product List | Glossary On
Versions: 1 2 3 4 5 6 7 8 9 10 11 12 13 14 15 16 17 18 19 20 21 22 23 24 25 26 27 28 29 30 31 32 33 34 35 36 37 38 39 40 41 42 43 44 45 46 47 48 49 50
000
ASUS43 KLOT 191508
RWRIL

ILLINOIS REGIONAL WEATHER ROUNDUP
NATIONAL WEATHER SERVICE CHICAGO/ROMEOVILLE IL
900 AM CST SUN FEB 19 2017

NOTE: "FAIR" INDICATES FEW OR NO CLOUDS BELOW 12,000 FEET WITH NO
SIGNIFICANT WEATHER AND/OR OBSTRUCTIONS TO VISIBILITY.

* THESE STATIONS ARE NOT UNDER NWS QUALITY CONTROL. THEY ALSO MAY NOT
  REPORT WEATHER SUCH AS PRECIPITATION OR FOG.

ILZ001-002-007-009-015-016-024-191600-
NORTHWEST ILLINOIS

CITY           SKY/WX    TMP DP  RH WIND       PRES   REMARKS
MOLINE         SUNNY     43  36  76 E3        30.02S
STERLING*      SUNNY     42  38  85 E3        30.04S
SAVANNA*       SUNNY     38  34  85 CALM      30.04R
$$

ILZ003-004-008-010-011-017-018-191600-
NORTH CENTRAL ILLINOIS

CITY           SKY/WX    TMP DP  RH WIND       PRES   REMARKS
ROCKFORD       MOSUNNY   42  37  82 CALM      30.06S
FREEPORT*      SUNNY     39  37  91 CALM      30.05F
ROCHELLE*      SUNNY     43  38  82 CALM      30.05S
DE KALB*       SUNNY     50  37  62 E3        30.05R
PERU*          SUNNY     44  38  78 CALM      30.05R
$$

ILZ005-006-012>014-019>023-191600-
NORTHEAST ILLINOIS

CITY           SKY/WX    TMP DP  RH WIND       PRES   REMARKS
CHICAGO-OHARE  MOSUNNY   53  36  52 CALM      30.03R
CHICAGO-MIDWAY MOSUNNY   51  39  63 CALM      30.04S
AURORA         SUNNY     49  41  74 CALM      30.05R
LANSING*       SUNNY     47  41  78 CALM      30.05R
JOLIET*        SUNNY     50  42  74 N3        30.06R
WAUKEGAN       SUNNY     52  36  54 N3        30.04R
DUPAGE AIRPORT SUNNY     48  39  71 CALM      30.04R
KANKAKEE*      SUNNY     42  39  87 CALM      30.07R
WHEELING       SUNNY     50  35  56 CALM      30.05R
MORRIS*        SUNNY     47  40  76 CALM      30.04R
ROMEOVILLE*    SUNNY     47  43  85 CALM      30.05R
NORTHERLY ISL    N/A     54  35  48 CALM        N/A
$$

LMZ740>746-191600-
SOUTHERN LAKE MICHIGAN

STATION/POSITION SKY/WX   TEMP    WIND        PRES    VSBY  WAVE
                          AIR SEA DIR/SP/G                  HT/PER
                          (F)     (DEG/KT/KT) (MB)    (MI)  (FT/S)
HARRISON CRIB              51     280/  3/  3   N/A
BURNHAM HARBOR             55      CALM  /  2   N/A
CALUMET HARBOR             56      CALM  /  1 1016.7R
BURNS HARBOR               47     210/  1/  2 1017.9R
MICHIGAN CITY              45     190/  3/  4   N/A
$$

ILZ025>027-034>036-040-047-049-050-058-095>099-191600-
WEST-CENTRAL ILLINOIS

CITY           SKY/WX    TMP DP  RH WIND       PRES   REMARKS
QUINCY         SUNNY     51  47  86 SW8       30.03R
GALESBURG*     SUNNY     50  40  69 E3        30.03
MACOMB*        SUNNY     47  39  73 CALM      30.05R
JACKSONVILLE*  SUNNY     47  46  94 S5        30.05R
PITTSFIELD*    SUNNY     51  47  86 CALM      30.05R
$$

ILZ028>032-037-038-041>044-048-051>054-059>061-191600-
CENTRAL ILLINOIS

CITY           SKY/WX    TMP DP  RH WIND       PRES   REMARKS
PONTIAC        SUNNY     43  43  99 CALM      30.06R
BLOOMINGTON    FOG       42  42 100 SW7       30.06R VSB 1/4
DECATUR        FOG       47  46  97 SW6       30.07R VSB 1/4
PEORIA         FOG       40  40 100 CALM      30.05R VSB<1/4
LACON*         SUNNY     44  40  88 CALM      30.05R
LINCOLN*       FOG       45  45 100 S5        30.06R VSB<1/4
SPRINGFIELD    FOG       45  45 100 S5        30.06R VSB 1/4
TAYLORVILLE    FOG       46  46 100 CALM      30.07R VSB<1/4
$$

ILZ033-039-045-046-055>057-062-063-191600-
EAST-CENTRAL ILLINOIS

CITY           SKY/WX    TMP DP  RH WIND       PRES   REMARKS
CHAMPAIGN      FOG       48  46  93 S6        30.07R VSB 1/4
RANTOUL*       FOG       48  48  99 CALM      30.07R VSB 1/4
MATTOON        CLOUDY    50  50 100 S5        30.07R FOG
PARIS*         CLOUDY    49  48  96 S3        30.09R FOG
$$

ILZ079-100>102-191600-
SOUTHWEST ILLINOIS

CITY           SKY/WX    TMP DP  RH WIND       PRES   REMARKS
ALTON          FOG       45  45 100 CALM      30.07R VSB 1/4
BELLEVILLE     FOG       48  48 100 E3        30.07R VSB 1/4
CAHOKIA*       FOG       50  48  93 VRB5      30.06S VSB 1/2
SPARTA*        FOG       50  50  99 S5        30.09R VSB 1/4
$$

ILZ064>066-069>071-074>076-080>082-084>086-088>090-092>094-191600-
SOUTH-CENTRAL ILLINOIS

CITY           SKY/WX    TMP DP  RH WIND       PRES   REMARKS
CARBONDALE     CLOUDY    53  53 100 CALM      30.10R FOG
CAIRO*         FOG       47  47 100 CALM      30.11S VSB 1/4
EFFINGHAM*     CLOUDY    50  50 100 CALM      30.09S FOG
MARION         CLOUDY    54  54 100 CALM      30.10S FOG
MT. VERNON     CLOUDY    53  51  93 SE3       30.09S FOG
CENTRALIA*     CLOUDY    52  52 100 S3        30.07S FOG
SALEM*         CLOUDY    53  51  92 S6        30.08S FOG
METROPOLIS*    FOG       49  49  99 CALM      30.12R VSB 1/4
$$

ILZ067-068-072-073-078-083-087-091-191600-
SOUTHEAST ILLINOIS

CITY           SKY/WX    TMP DP  RH WIND       PRES   REMARKS
LAWRENCEVILLE  CLOUDY    51  48  89 SW3       30.10R FOG
FLORA*         CLOUDY    52  51  94 CALM      30.09S FOG
FAIRFIELD*     CLOUDY    52  51  97 CALM      30.09S FOG
HARRISBURG*    CLOUDY    52  52 100 CALM      30.10S FOG
ROBINSON*      CLOUDY    51  48  90 CALM      30.11R FOG
CARMI*         CLOUDY    51  51 100 CALM      30.10S FOG
$$

ABBREVIATIONS USED IN REMARKS
   TC - TEMPERATURE IN CELSIUS
  WCI - WIND CHILL INDEX
   HX - HEAT INDEX
  VSB - VISIBILITY
$$




USA.gov is the U.S. government's official web portal to all federal, state and local government web resources and services.